TimeEST,TemperatureF,Dew PointF,Humidity,Sea Level PressureIn,VisibilityMPH,Wind Direction,Wind SpeedMPH,Gust SpeedMPH,PrecipitationIn,Events,Conditions,WindDirDegrees,DateUTC
12:28 AM,32.0,30.2,93,30.04,5.0,WSW,3.5,-,N/A,,Scattered Clouds,240,2009-01-03 05:28:00
12:37 AM,32.0,32.0,100,30.04,7.0,Calm,Calm,-,N/A,,Mostly Cloudy,0,2009-01-03 05:37:00
12:54 AM,33.1,32.0,96,30.04,4.0,NNW,4.6,-,N/A,,Overcast,340,2009-01-03 05:54:00
12:59 AM,33.8,33.8,100,30.03,1.5,NNW,3.5,-,N/A,,Overcast,330,2009-01-03 05:59:00
1:02 AM,33.8,33.8,100,30.03,0.8,WNW,3.5,-,N/A,,Overcast,300,2009-01-03 06:02:00
1:09 AM,32.0,32.0,100,30.03,0.5,Calm,Calm,-,N/A,Fog,Fog,0,2009-01-03 06:09:00
1:36 AM,33.8,33.8,100,30.03,0.2,Calm,Calm,-,N/A,Fog,Fog,0,2009-01-03 06:36:00
1:54 AM,34.0,34.0,100,30.04,0.2,Calm,Calm,-,N/A,Fog,Fog,0,2009-01-03 06:54:00
2:54 AM,33.1,33.1,100,30.04,0.2,Calm,Calm,-,N/A,Fog,Fog,0,2009-01-03 07:54:00
3:54 AM,35.1,35.1,100,30.03,0.2,NNW,6.9,-,N/A,Fog,Fog,340,2009-01-03 08:54:00
4:19 AM,33.8,33.8,100,30.03,0.5,NNW,9.2,-,N/A,Fog,Fog,330,2009-01-03 09:19:00
4:45 AM,33.8,33.8,100,30.03,0.2,NNW,8.1,-,N/A,Fog,Fog,340,2009-01-03 09:45:00
4:54 AM,34.0,34.0,100,30.04,0.2,North,6.9,-,N/A,Fog,Fog,350,2009-01-03 09:54:00
5:28 AM,35.6,35.6,100,30.04,0.5,NNW,8.1,-,N/A,Fog,Fog,340,2009-01-03 10:28:00
5:54 AM,35.1,35.1,100,30.06,0.5,NNW,5.8,-,N/A,Fog,Fog,340,2009-01-03 10:54:00
6:19 AM,35.6,35.6,100,30.05,1.0,NNW,8.1,-,N/A,,Overcast,340,2009-01-03 11:19:00
6:54 AM,35.1,35.1,100,30.08,1.2,NW,5.8,-,N/A,,Overcast,310,2009-01-03 11:54:00
7:10 AM,33.8,33.8,100,30.07,0.5,NW,5.8,-,N/A,Fog,Fog,320,2009-01-03 12:10:00
7:51 AM,33.8,33.8,100,30.08,0.1,NNW,6.9,-,N/A,Fog,Fog,340,2009-01-03 12:51:00
7:54 AM,34.0,34.0,100,30.10,0.1,NNW,5.8,-,N/A,Fog,Fog,340,2009-01-03 12:54:00
8:30 AM,33.8,33.8,100,30.09,0.2,Calm,Calm,-,N/A,Fog,Fog,0,2009-01-03 13:30:00
8:54 AM,34.0,34.0,100,30.11,0.2,NNW,5.8,-,N/A,Fog,Fog,330,2009-01-03 13:54:00
9:54 AM,35.1,35.1,100,30.13,0.2,NNW,5.8,-,N/A,Fog,Fog,330,2009-01-03 14:54:00
10:49 AM,37.4,37.4,100,30.11,3.0,NNW,4.6,-,N/A,,Overcast,340,2009-01-03 15:49:00
10:54 AM,37.0,37.0,100,30.13,2.0,NNW,3.5,-,N/A,,Overcast,330,2009-01-03 15:54:00
11:15 AM,39.2,37.4,93,30.10,5.0,NW,3.5,-,N/A,,Scattered Clouds,320,2009-01-03 16:15:00
11:54 AM,45.0,39.0,80,30.09,10.0,Calm,Calm,-,N/A,,Clear,0,2009-01-03 16:54:00
12:54 PM,52.0,39.0,61,30.06,10.0,Calm,Calm,-,N/A,,Clear,0,2009-01-03 17:54:00
1:54 PM,55.9,39.9,55,30.04,10.0,Calm,Calm,-,N/A,,Mostly Cloudy,0,2009-01-03 18:54:00
2:54 PM,59.0,39.9,49,30.03,10.0,Calm,Calm,-,N/A,,Mostly Cloudy,0,2009-01-03 19:54:00
3:54 PM,57.9,43.0,58,30.04,10.0,South,3.5,-,N/A,,Overcast,170,2009-01-03 20:54:00
4:54 PM,55.0,46.9,74,30.04,10.0,South,5.8,-,0.00,,Overcast,180,2009-01-03 21:54:00
5:54 PM,51.1,43.0,74,30.06,10.0,SE,3.5,-,N/A,,Mostly Cloudy,140,2009-01-03 22:54:00
6:54 PM,48.0,42.1,80,30.09,10.0,South,6.9,-,N/A,,Clear,170,2009-01-03 23:54:00
7:30 PM,48.2,42.8,82,30.08,10.0,South,4.6,-,N/A,,Mostly Cloudy,180,2009-01-04 00:30:00
7:54 PM,48.9,43.0,80,30.09,10.0,SE,3.5,-,N/A,,Overcast,140,2009-01-04 00:54:00
8:02 PM,48.2,42.8,82,30.09,10.0,SSE,5.8,-,N/A,,Overcast,160,2009-01-04 01:02:00
8:54 PM,48.0,43.0,83,30.10,10.0,SSE,8.1,-,N/A,,Overcast,160,2009-01-04 01:54:00
9:09 PM,48.2,42.8,82,30.09,10.0,South,8.1,-,N/A,,Overcast,170,2009-01-04 02:09:00
9:54 PM,48.9,42.1,77,30.09,10.0,SSE,3.5,-,N/A,,Overcast,150,2009-01-04 02:54:00
10:54 PM,48.9,44.1,83,30.10,10.0,SSW,3.5,-,N/A,,Overcast,200,2009-01-04 03:54:00
11:54 PM,48.0,46.0,93,30.08,9.0,South,4.6,-,0.00,,Overcast,190,2009-01-04 04:54:00